Torna al catalogo

KUIPER-00454

AttivoComunicazioniLEO
NORAD 68948·PAYLOAD·🇺🇸 United States

Lanciato Apr 30, 2026 da Guiana Space Centre

Loading…

Prossimi Passaggi (prossime 24 ore)

TLE

AggiornatoSource: CelesTrak SupGP

Epoca: Sep 15, 2026, 05:22 UTC

1 68948C 26098AF  26258.22368056  .00003123  00000+0  40845-3 0  2585
2 68948  51.9006  27.5059 0001100 112.7842 122.4968 14.79968623    11

Traccia KUIPER-00454 in tempo reale con AllMySat

Download on the App Store